| time (UTC) | temp F | wind direction | speed MPH | gust MPH | rain 1hr in | rain 24hr in | rain mn in | humidity % | barometer mb |
| 20260506050418 | 54 | 284 | 0.0 | 1.0 | 0.00 | 0.18 | 0.03 | 95 | 1019.3 |
| 20260506044425 | 54 | 291 | 0.0 | 2.0 | 0.00 | 0.21 | 0.03 | 94 | 1019.0 |
| 20260506043418 | 54 | 277 | 0.0 | 2.0 | 0.00 | 0.21 | 0.03 | 94 | 1018.9 |
| 20260506042431 | 54 | 285 | 0.0 | 2.0 | 0.00 | 0.21 | 0.03 | 94 | 1018.9 |
| 20260506041428 | 54 | 285 | 0.0 | 2.0 | 0.00 | 0.21 | 0.03 | 94 | 1018.7 |
| 20260506040420 | 54 | 298 | 0.0 | 2.0 | 0.00 | 0.21 | 0.03 | 94 | 1018.6 |
| 20260506035431 | 54 | 291 | 0.0 | 2.0 | 0.00 | 0.25 | 0.03 | 94 | 1018.4 |
| 20260506034425 | 54 | 277 | 0.0 | 3.0 | 0.00 | 0.25 | 0.03 | 94 | 1018.4 |
| 20260506033422 | 54 | 296 | 0.0 | 2.0 | 0.00 | 0.25 | 0.03 | 94 | 1018.2 |
| 20260506032417 | 54 | 298 | 1.0 | 4.0 | 0.00 | 0.25 | 0.03 | 94 | 1018.1 |
| 20260506031430 | 54 | 272 | 1.0 | 3.0 | 0.00 | 0.25 | 0.03 | 93 | 1017.8 |
| 20260506030425 | 55 | 272 | 0.0 | 2.0 | 0.00 | 0.25 | 0.03 | 92 | 1017.7 |
| 20260506025422 | 55 | 293 | 0.0 | 3.0 | 0.00 | 0.32 | 0.03 | 91 | 1017.7 |
| 20260506024436 | 56 | 319 | 0.0 | 4.0 | 0.00 | 0.32 | 0.03 | 92 | 1017.7 |
| 20260506023429 | 56 | 266 | 0.0 | 5.0 | 0.00 | 0.32 | 0.03 | 91 | 1017.5 |
| 20260506022424 | 57 | 298 | 1.0 | 4.0 | 0.00 | 0.32 | 0.03 | 89 | 1017.5 |
| 20260506021421 | 58 | 301 | 0.0 | 6.0 | 0.00 | 0.32 | 0.03 | 87 | 1017.4 |
| 20260506020414 | 58 | 272 | 1.0 | 5.0 | 0.00 | 0.32 | 0.03 | 89 | 1017.1 |
| 20260506015446 | 57 | 302 | 2.0 | 6.0 | 0.00 | 0.40 | 0.03 | 90 | 1017.1 |
| 20260506014423 | 57 | 305 | 1.0 | 5.0 | 0.00 | 0.40 | 0.03 | 89 | 1017.0 |
| 20260506013417 | 57 | 308 | 1.0 | 7.0 | 0.00 | 0.40 | 0.03 | 88 | 1017.0 |
| 20260506012432 | 57 | 322 | 3.0 | 7.0 | 0.00 | 0.40 | 0.03 | 87 | 1016.9 |
| 20260506011445 | 57 | 268 | 4.0 | 9.0 | 0.00 | 0.40 | 0.03 | 85 | 1016.9 |
| 20260506010423 | 58 | 318 | 6.0 | 10.0 | 0.00 | 0.40 | 0.03 | 84 | 1016.9 |
| 20260506005415 | 58 | 308 | 5.0 | 10.0 | 0.00 | 0.48 | 0.03 | 84 | 1016.9 |
| 20260506004448 | 59 | 316 | 4.0 | 9.0 | 0.00 | 0.48 | 0.03 | 83 | 1016.8 |
| 20260506003441 | 59 | 312 | 3.0 | 8.0 | 0.00 | 0.48 | 0.03 | 84 | 1016.7 |
| 20260506002419 | 59 | 272 | 5.0 | 8.0 | 0.00 | 0.48 | 0.03 | 83 | 1016.7 |
| 20260506001433 | 60 | 282 | 1.0 | 14.0 | 0.00 | 0.48 | 0.03 | 82 | 1016.7 |
| 20260506000427 | 60 | 297 | 5.0 | 13.0 | 0.00 | 0.48 | 0.03 | 83 | 1016.6 |
| 20260505235438 | 60 | 323 | 5.0 | 12.0 | 0.00 | 0.53 | 0.03 | 82 | 1016.6 |
| 20260505234416 | 61 | 300 | 2.0 | 14.0 | 0.00 | 0.53 | 0.03 | 84 | 1016.6 |
| 20260505233431 | 61 | 319 | 2.0 | 8.0 | 0.00 | 0.53 | 0.03 | 81 | 1016.7 |
| 20260505232424 | 61 | 319 | 4.0 | 11.0 | 0.00 | 0.53 | 0.03 | 79 | 1016.6 |
| 20260505231422 | 61 | 330 | 7.0 | 12.0 | 0.00 | 0.53 | 0.03 | 79 | 1016.7 |
| 20260505230436 | 62 | 251 | 3.0 | 10.0 | 0.00 | 0.53 | 0.03 | 81 | 1016.5 |
| 20260505225428 | 62 | 268 | 4.0 | 10.0 | 0.00 | 0.54 | 0.03 | 79 | 1016.5 |
| 20260505224421 | 62 | 310 | 4.0 | 12.0 | 0.00 | 0.54 | 0.03 | 81 | 1016.6 |
| 20260505223420 | 63 | 296 | 2.0 | 10.0 | 0.00 | 0.54 | 0.03 | 79 | 1016.7 |
| 20260505222433 | 63 | 262 | 3.0 | 15.0 | 0.00 | 0.54 | 0.03 | 81 | 1016.6 |
| 20260505221425 | 63 | 322 | 8.0 | 12.0 | 0.00 | 0.54 | 0.03 | 78 | 1016.5 |
| 20260505220419 | 63 | 307 | 1.0 | 9.0 | 0.00 | 0.54 | 0.03 | 80 | 1016.6 |
| 20260505215437 | 63 | 314 | 5.0 | 10.0 | 0.00 | 0.54 | 0.03 | 81 | 1016.7 |
| 20260505214430 | 62 | 272 | 3.0 | 10.0 | 0.00 | 0.54 | 0.03 | 81 | 1016.9 |
| 20260505213424 | 62 | 326 | 5.0 | 11.0 | 0.00 | 0.54 | 0.03 | 81 | 1017.0 |
| 20260505212417 | 61 | 324 | 6.0 | 10.0 | 0.00 | 0.54 | 0.03 | 83 | 1017.1 |
| 20260505211415 | 61 | 325 | 6.0 | 11.0 | 0.00 | 0.54 | 0.03 | 82 | 1017.1 |
| 20260505210450 | 62 | 327 | 4.0 | 9.0 | 0.00 | 0.54 | 0.03 | 82 | 1017.1 |
| 20260505205422 | 62 | 309 | 3.0 | 8.0 | 0.00 | 0.54 | 0.03 | 81 | 1017.2 |
| 20260505204418 | 61 | 301 | 2.0 | 8.0 | 0.00 | 0.54 | 0.03 | 83 | 1017.2 |
| 20260505203431 | 61 | 274 | 3.0 | 9.0 | 0.00 | 0.54 | 0.03 | 83 | 1017.1 |
| 20260505202425 | 61 | 309 | 3.0 | 8.0 | 0.00 | 0.54 | 0.03 | 83 | 1017.2 |
| 20260505201417 | 61 | 326 | 2.0 | 9.0 | 0.00 | 0.54 | 0.03 | 83 | 1017.2 |
| 20260505200415 | 61 | 292 | 4.0 | 11.0 | 0.00 | 0.54 | 0.03 | 85 | 1017.3 |
| 20260505195426 | 61 | 296 | 5.0 | 12.0 | 0.00 | 0.54 | 0.03 | 84 | 1017.3 |
| 20260505194419 | 61 | 298 | 4.0 | 9.0 | 0.00 | 0.54 | 0.03 | 85 | 1017.2 |
| 20260505193434 | 61 | 320 | 3.0 | 8.0 | 0.00 | 0.54 | 0.03 | 86 | 1017.2 |
| 20260505192432 | 60 | 296 | 3.0 | 11.0 | 0.00 | 0.54 | 0.03 | 85 | 1017.3 |
| 20260505191425 | 60 | 316 | 5.0 | 10.0 | 0.00 | 0.54 | 0.03 | 86 | 1017.3 |
| 20260505190439 | 59 | 298 | 5.0 | 9.0 | 0.00 | 0.54 | 0.03 | 85 | 1017.3 |
| 20260505185430 | 59 | 337 | 6.0 | 14.0 | 0.00 | 0.54 | 0.03 | 86 | 1017.2 |
| 20260505184428 | 59 | 336 | 4.0 | 8.0 | 0.00 | 0.54 | 0.03 | 86 | 1017.3 |
| 20260505183423 | 59 | 337 | 5.0 | 11.0 | 0.00 | 0.54 | 0.03 | 85 | 1017.2 |
| 20260505182416 | 59 | 308 | 4.0 | 10.0 | 0.00 | 0.54 | 0.03 | 84 | 1017.2 |
| 20260505181448 | 58 | 331 | 5.0 | 11.0 | 0.00 | 0.54 | 0.03 | 84 | 1017.1 |
| 20260505180445 | 58 | 324 | 4.0 | 9.0 | 0.00 | 0.54 | 0.03 | 84 | 1017.1 |
| 20260505175416 | 58 | 315 | 3.0 | 9.0 | 0.00 | 0.54 | 0.03 | 86 | 1017.1 |
| 20260505174428 | 58 | 296 | 3.0 | 8.0 | 0.00 | 0.54 | 0.03 | 85 | 1017.0 |
| 20260505173426 | 58 | 306 | 2.0 | 8.0 | 0.00 | 0.54 | 0.03 | 85 | 1016.7 |
| 20260505083420 | 51 | 296 | 0.0 | 2.0 | 0.01 | 0.54 | 0.03 | 97 | 1016.2 |
| 20260505082433 | 51 | 282 | 0.0 | 5.0 | 0.01 | 0.54 | 0.03 | 97 | 1016.1 |
| 20260505081446 | 51 | 267 | 0.0 | 1.0 | 0.01 | 0.54 | 0.03 | 97 | 1016.2 |
| 20260505080421 | 51 | 289 | 0.0 | 0.0 | 0.02 | 0.54 | 0.03 | 97 | 1016.3 |
| 20260505075432 | 52 | 289 | 0.0 | 0.0 | 0.03 | 0.54 | 0.03 | 97 | 1016.5 |
| 20260505074424 | 52 | 289 | 0.0 | 0.0 | 0.04 | 0.54 | 0.03 | 97 | 1016.2 |
| 20260505073422 | 52 | 289 | 0.0 | 1.0 | 0.06 | 0.53 | 0.02 | 97 | 1016.4 |
| 20260505072435 | 52 | 289 | 0.0 | 4.0 | 0.10 | 0.53 | 0.02 | 97 | 1016.6 |
| 20260505071427 | 52 | 310 | 0.0 | 4.0 | 0.13 | 0.53 | 0.02 | 97 | 1016.3 |
| 20260505070441 | 52 | 296 | 2.0 | 5.0 | 0.14 | 0.52 | 0.01 | 97 | 1016.5 |
| 20260505065452 | 52 | 288 | 1.0 | 5.0 | 0.14 | 0.51 | 0.51 | 97 | 1016.6 |
| 20260505064429 | 52 | 300 | 1.0 | 4.0 | 0.13 | 0.50 | 0.50 | 97 | 1016.6 |
| 20260505063423 | 52 | 307 | 2.0 | 5.0 | 0.10 | 0.47 | 0.47 | 97 | 1016.2 |
| 20260505062437 | 52 | 308 | 3.0 | 7.0 | 0.06 | 0.43 | 0.43 | 97 | 1016.6 |
| 20260505061413 | 52 | 322 | 4.0 | 8.0 | 0.04 | 0.40 | 0.40 | 97 | 1016.5 |
| 20260505060427 | 52 | 309 | 2.0 | 6.0 | 0.02 | 0.38 | 0.38 | 97 | 1016.7 |
| 20260505055419 | 52 | 291 | 2.0 | 4.0 | 0.01 | 0.37 | 0.37 | 97 | 1016.7 |
| 20260505054451 | 52 | 300 | 0.0 | 3.0 | 0.01 | 0.37 | 0.37 | 97 | 1016.7 |
| 20260505053428 | 52 | 305 | 0.0 | 5.0 | 0.02 | 0.37 | 0.37 | 97 | 1016.5 |